TimeCDT,TemperatureF,Dew PointF,Humidity,Sea Level PressureIn,VisibilityMPH,Wind Direction,Wind SpeedMPH,Gust SpeedMPH,PrecipitationIn,Events,Conditions,WindDirDegrees,DateUTC
12:53 AM,59.0,57.0,93,30.11,10.0,Calm,Calm,-,N/A,,Clear,0,2012-09-27 05:53:00
1:53 AM,59.0,59.0,100,30.12,5.0,Calm,Calm,-,N/A,,Clear,0,2012-09-27 06:53:00
2:07 AM,59.0,59.0,100,30.10,1.8,Calm,Calm,-,N/A,,Clear,0,2012-09-27 07:07:00
2:14 AM,57.2,57.2,100,30.10,2.0,Calm,Calm,-,N/A,,Clear,0,2012-09-27 07:14:00
2:22 AM,59.0,57.2,94,30.10,1.0,Calm,Calm,-,N/A,,Clear,0,2012-09-27 07:22:00
2:29 AM,59.0,57.2,94,30.10,0.5,Calm,Calm,-,N/A,Fog,Fog,0,2012-09-27 07:29:00
2:42 AM,59.0,57.2,94,30.10,2.0,Calm,Calm,-,N/A,,Clear,0,2012-09-27 07:42:00
2:49 AM,57.2,57.2,100,30.10,0.8,Calm,Calm,-,N/A,,Clear,0,2012-09-27 07:49:00
2:50 AM,59.0,57.0,93,30.12,0.8,Calm,Calm,-,N/A,,Clear,0,2012-09-27 07:50:00
2:59 AM,59.0,57.2,94,30.11,2.0,Calm,Calm,-,N/A,,Clear,0,2012-09-27 07:59:00
3:08 AM,59.0,57.2,94,30.11,4.0,Calm,Calm,-,N/A,,Clear,0,2012-09-27 08:08:00
3:31 AM,59.0,57.2,94,30.11,1.5,Calm,Calm,-,N/A,,Clear,0,2012-09-27 08:31:00
3:39 AM,57.2,57.2,100,30.10,0.5,Calm,Calm,-,N/A,Fog,Fog,0,2012-09-27 08:39:00
3:50 AM,59.0,57.2,94,30.11,2.5,Calm,Calm,-,N/A,,Clear,0,2012-09-27 08:50:00
3:53 AM,59.0,57.9,96,30.12,2.5,Calm,Calm,-,N/A,,Clear,0,2012-09-27 08:53:00
4:07 AM,57.2,57.2,100,30.11,3.0,Calm,Calm,-,N/A,,Clear,0,2012-09-27 09:07:00
4:53 AM,57.9,55.9,93,30.13,4.0,Calm,Calm,-,N/A,,Clear,0,2012-09-27 09:53:00
5:29 AM,59.0,57.2,94,30.13,2.0,Calm,Calm,-,N/A,,Clear,0,2012-09-27 10:29:00
5:43 AM,59.0,57.2,94,30.13,0.8,Calm,Calm,-,N/A,,Clear,0,2012-09-27 10:43:00
5:53 AM,57.9,57.0,97,30.15,0.2,Calm,Calm,-,N/A,Fog,Fog,0,2012-09-27 10:53:00
6:19 AM,59.0,57.2,94,30.14,2.0,Calm,Calm,-,N/A,,Clear,0,2012-09-27 11:19:00
6:26 AM,59.0,57.2,94,30.14,5.0,Calm,Calm,-,N/A,,Clear,0,2012-09-27 11:26:00
6:53 AM,60.1,59.0,96,30.16,3.0,Calm,Calm,-,N/A,,Clear,0,2012-09-27 11:53:00
6:58 AM,60.8,57.2,88,30.14,1.5,Calm,Calm,-,N/A,,Clear,0,2012-09-27 11:58:00
7:13 AM,60.8,59.0,94,30.14,0.5,SE,3.5,-,N/A,Fog,Fog,130,2012-09-27 12:13:00
7:21 AM,62.6,62.6,100,30.14,3.0,SE,3.5,-,N/A,,Clear,130,2012-09-27 12:21:00
7:53 AM,66.9,64.9,93,30.17,7.0,Calm,Calm,-,N/A,,Clear,0,2012-09-27 12:53:00
8:53 AM,73.0,68.0,84,30.17,10.0,SSE,4.6,-,N/A,,Clear,160,2012-09-27 13:53:00
9:53 AM,79.0,71.1,77,30.18,10.0,Calm,Calm,-,N/A,,Clear,0,2012-09-27 14:53:00
10:53 AM,82.9,70.0,65,30.17,10.0,Variable,3.5,-,N/A,,Scattered Clouds,0,2012-09-27 15:53:00
11:53 AM,84.0,69.1,61,30.16,10.0,NNE,4.6,-,N/A,,Mostly Cloudy,30,2012-09-27 16:53:00
1:53 PM,88.0,64.9,46,30.10,10.0,Variable,3.5,-,N/A,,Partly Cloudy,0,2012-09-27 18:53:00
2:53 PM,88.0,64.0,45,30.08,10.0,SE,5.8,-,N/A,,Clear,140,2012-09-27 19:53:00
3:53 PM,87.1,64.9,48,30.06,10.0,South,5.8,-,N/A,,Partly Cloudy,190,2012-09-27 20:53:00
4:53 PM,88.0,64.9,46,30.05,10.0,ESE,10.4,-,N/A,,Partly Cloudy,120,2012-09-27 21:53:00
5:53 PM,84.0,64.9,53,30.05,10.0,SSE,6.9,-,N/A,,Clear,160,2012-09-27 22:53:00
6:53 PM,77.0,66.9,71,30.07,10.0,South,4.6,-,N/A,,Clear,170,2012-09-27 23:53:00
7:53 PM,71.1,66.9,87,30.09,10.0,Calm,Calm,-,N/A,,Scattered Clouds,0,2012-09-28 00:53:00
8:53 PM,66.9,64.0,90,30.10,10.0,Calm,Calm,-,N/A,,Partly Cloudy,0,2012-09-28 01:53:00
9:53 PM,64.0,62.1,93,30.10,9.0,Calm,Calm,-,N/A,,Clear,0,2012-09-28 02:53:00
10:53 PM,63.0,61.0,93,30.10,7.0,Calm,Calm,-,N/A,,Clear,0,2012-09-28 03:53:00
11:53 PM,63.0,62.1,97,30.09,6.0,Calm,Calm,-,N/A,,Clear,0,2012-09-28 04:53:00